User: anonymous   Login
Location: Olda
(45.8833°N, 9.5500°E)
Time: 04:01:05
(UTC+00:00)
Language:

Cosmos 44 Rocket - Orbit

View from above orbital plane
View from above orbital plane
View from above satellite
View from above satellite

Ground track
Ground track

The orbit data is extracted from the following two-line orbital elements,

1 00877U 64053B   21134.28510759 -.00000066  00000-0  11908-4 0  9994
2 00877  65.0779  82.1360 0083450 270.1790  88.9747 14.59427976  9763
Epoch (UTC): 14 May 2021 06:50:33
Eccentricity: 0.0083450
inclination: 65.0779°
perigee height: 636 km
apogee height: 754 km
right ascension of ascending node: 82.1360°
argument of perigee: 270.1790°
revolutions per day: 14.59427976
mean anomaly at epoch: 88.9747°
orbit number at epoch: 976

The dashed part of the orbit path shows where the satellite is in the earth's shadow,  

DLR